Flag for United Kingdom Weather past 2 weeks in Dundee, Scotland, United Kingdom

Now
28 °F

Clear.


Feels Like: 22 °F
Forecast: 26 / 32 °F
Wind: 6 mph from West

Location: Leuchars

Current Time: Dec 26, 2014 at 1:50:44 AM

Latest Report: Dec 26, 2014 at 12:50 AM


Visibility: 10 mi

Pressure: 30.39 "Hg

Humidity: 100%

Dew point: 28 °F

Location of DundeeLocation

Historic Weather in Dundee — Graph

°F

Dundee temperature yesterday

Maximum temperature yesterday: 41 °F (at 1:50 PM)
Minimum temperature yesterday: 28 °F (at 8:50 PM)
Average temperature yesterday: 34 °F

Past Weeks' High & Low Weather Summary

 TemperatureHumidityPressure
High52 °F (Dec 21, 12:50 PM)100% (Dec 16, 10:50 PM)30.42 "Hg (Dec 16, 10:50 PM)
Low28 °F (Dec 12, 4:50 AM)53% (Dec 20, 12:50 PM)29.09 "Hg (Dec 12, 6:50 AM)
Average40 °F85%29.59 "Hg
* Reported Dec 11 12:50 AM — Dec 26 12:50 AM, Dundee, Weather by CustomWeather, © 2014

Note: Actual official high and low records may vary slightly from our data, if they occured in-between our weather recording intervals... More about our weather records

Advertising

Dundee weather history for previous 24 hours

 ConditionsComfort  
Time TempWeatherWind HumidityBarometerVisibility
12:50 AM
Dec 26
28 °FClear.6 mph100%30.39 "Hg10 mi
11:50 PM
Dec 25
30 °FClear.9 mph93%30.39 "Hg10 mi
10:50 PM30 °FClear.8 mph93%30.39 "Hg10 mi
9:50 PM30 °FClear.7 mph93%30.42 "Hg10 mi
8:50 PM28 °FClear.6 mph93%30.42 "Hg10 mi
7:50 PM30 °FClear.6 mph93%30.39 "Hg10 mi
6:50 PM30 °FClear.6 mph86%30.39 "Hg10 mi
5:50 PM32 °FClear.7 mph87%30.39 "Hg10 mi
4:50 PM34 °FClear.6 mph87%30.36 "Hg10 mi
3:50 PM32 °FClear.5 mph87%30.36 "Hg10 mi
2:50 PM37 °FSunny.5 mph75%30.33 "Hg10 mi
1:50 PM41 °FSunny.6 mph70%30.33 "Hg10 mi
12:50 PM39 °FSunny.6 mph81%30.30 "Hg10 mi
11:50 AM37 °FSunny.7 mph87%30.30 "Hg10 mi
10:50 AM36 °FSunny.6 mph93%30.27 "Hg10 mi
9:50 AM32 °FSunny.7 mph100%30.24 "Hg10 mi
8:50 AM30 °FSunny.3 mph86%30.21 "Hg10 mi
7:50 AM34 °FClear.6 mph93%30.18 "Hg10 mi
6:50 AM32 °FClear.5 mph93%30.18 "Hg10 mi
5:50 AM34 °FClear.3 mph93%30.15 "Hg10 mi
4:50 AM36 °FClear.6 mph93%30.12 "Hg10 mi
3:50 AM37 °FClear.5 mph87%30.09 "Hg10 mi
2:50 AM37 °FClear.3 mph87%30.07 "Hg10 mi
1:50 AM36 °FClear.2 mph87%30.07 "Hg10 mi
Weather by CustomWeather, © 2014

See weather overviewHow to use our weather pages